When you browse on this site, cookies collect data to enhance your experience and personalize the content and advertising you see.
Visit our Privacy Policy to learn more. By continuing to use the site, you agree to this use of cookies and data.
  • En Estados Unidos
  • Lista de países
  • Para 7 días
  • Temperatura del agua
  • Mapa Satelital
  • El tiempo en el mapa
  • Informadores
  • user-avatar
    Iniciar sesión

    Tiempo cada hora Tibissa

    Hoy, 12 Diciembre, Miércoles

    Tiempo Temperatura Precipitaciones Viento Presión Humedad
    00:00 +9°C° 0 mm 1 mps 687 mmHg 61%
    01:00 +8°C° 0 mm 1 mps 687 mmHg 62%
    02:00 +8°C° 0 mm 1 mps 686 mmHg 63%
    03:00 +8°C° 0 mm 1 mps 686 mmHg 63%
    04:00 +7°C° 0 mm 1 mps 686 mmHg 64%
    05:00 +7°C° 0 mm 1 mps 686 mmHg 65%
    06:00 +7°C° 0 mm 1 mps 686 mmHg 66%
    07:00 +6°C° 0 mm 1 mps 686 mmHg 66%
    08:00 +8°C° 0 mm 1 mps 686 mmHg 59%
    09:00 +10°C° 0 mm 1 mps 687 mmHg 51%
    10:00 +12°C° 0 mm 1 mps 688 mmHg 44%
    11:00 +13°C° 0 mm 1 mps 688 mmHg 39%
    12:00 +14°C° 0 mm 2 mps 688 mmHg 35%
    13:00 +15°C° 0 mm 2 mps 688 mmHg 31%
    14:00 +15°C° 0 mm 2 mps 687 mmHg 31%
    15:00 +15°C° 0 mm 2 mps 687 mmHg 31%
    16:00 +15°C° 0 mm 2 mps 687 mmHg 31%
    17:00 +14°C° 0 mm 2 mps 686 mmHg 37%
    18:00 +12°C° 0 mm 2 mps 686 mmHg 43%
    19:00 +11°C° 0 mm 1 mps 686 mmHg 50%
    20:00 +10°C° 0 mm 1 mps 686 mmHg 52%
    21:00 +10°C° 0 mm 1 mps 686 mmHg 54%
    22:00 +9°C° 0 mm 1 mps 686 mmHg 57%
    23:00 +9°C° 0 mm 1 mps 686 mmHg 58%

    Mañana, 13 Diciembre, Jueves

    Tiempo Temperatura Precipitaciones Viento Presión Humedad
    00:00 +7°C° 0 mm 0 mps 685 mmHg 60%
    01:00 +7°C° 0 mm 0 mps 685 mmHg 62%
    02:00 +7°C° 0 mm 0 mps 685 mmHg 62%
    03:00 +6°C° 0 mm 0 mps 685 mmHg 61%
    04:00 +7°C° 0 mm 1 mps 684 mmHg 61%
    05:00 +7°C° 0 mm 1 mps 684 mmHg 60%
    06:00 +7°C° 0 mm 1 mps 684 mmHg 60%
    07:00 +7°C° 0 mm 1 mps 684 mmHg 59%
    08:00 +9°C° 0 mm 1 mps 684 mmHg 53%
    09:00 +10°C° 0 mm 2 mps 684 mmHg 47%
    10:00 +12°C° 0 mm 2 mps 685 mmHg 41%
    11:00 +13°C° 0 mm 3 mps 684 mmHg 38%
    12:00 +14°C° 0 mm 4 mps 684 mmHg 35%
    13:00 +15°C° 0 mm 5 mps 684 mmHg 32%
    14:00 +14°C° 0 mm 5 mps 683 mmHg 34%
    15:00 +14°C° 0 mm 6 mps 683 mmHg 35%
    16:00 +14°C° 0 mm 6 mps 682 mmHg 36%
    17:00 +12°C° 0 mm 5 mps 682 mmHg 41%
    18:00 +10°C° 0 mm 5 mps 681 mmHg 46%
    19:00 +8°C° 0 mm 4 mps 681 mmHg 51%
    20:00 +8°C° 0 mm 4 mps 680 mmHg 52%
    21:00 +8°C° 0 mm 4 mps 680 mmHg 53%
    22:00 +8°C° 0 mm 4 mps 680 mmHg 53%
    23:00 +8°C° 0.1 mm 4 mps 680 mmHg 54%

    Pasado mañana, 14 Diciembre, Viernes

    Tiempo Temperatura Precipitaciones Viento Presión Humedad
    00:00 +8°C° 0.1 mm 4 mps 679 mmHg 55%
    01:00 +8°C° 0.1 mm 4 mps 679 mmHg 57%
    02:00 +8°C° 0 mm 5 mps 678 mmHg 57%
    03:00 +7°C° 0 mm 5 mps 678 mmHg 58%
    04:00 +7°C° 0 mm 6 mps 677 mmHg 59%
    05:00 +5°C° 0.1 mm 6 mps 677 mmHg 61%
    06:00 +4°C° 0.1 mm 6 mps 677 mmHg 64%
    07:00 +4°C° 0.1 mm 6 mps 676 mmHg 67%
    08:00 +4°C° 0.1 mm 6 mps 676 mmHg 66%
    09:00 +4°C° 0.1 mm 7 mps 676 mmHg 65%
    10:00 +4°C° 0.1 mm 7 mps 676 mmHg 64%
    11:00 +5°C° 0.1 mm 7 mps 676 mmHg 58%
    12:00 +6°C° 0.1 mm 8 mps 676 mmHg 53%
    13:00 +7°C° 0.1 mm 8 mps 676 mmHg 48%
    14:00 +7°C° 0.1 mm 8 mps 676 mmHg 50%
    15:00 +7°C° 0.1 mm 8 mps 677 mmHg 52%
    16:00 +7°C° 0.1 mm 8 mps 677 mmHg 54%
    17:00 +6°C° 0.5 mm 11 mps 677 mmHg 61%
    18:00 +5°C° 0.5 mm 13 mps 677 mmHg 68%
    19:00 +5°C° 0.5 mm 16 mps 678 mmHg 75%
    20:00 +5°C° 0.4 mm 16 mps 679 mmHg 78%
    21:00 +5°C° 0.4 mm 15 mps 679 mmHg 81%
    22:00 +5°C° 0.4 mm 15 mps 680 mmHg 84%
    23:00 +5°C° 0.5 mm 15 mps 680 mmHg 84%

    15 Diciembre, Sábado

    Tiempo Temperatura Precipitaciones Viento Presión Humedad
    00:00 +4°C° 0.5 mm 15 mps 681 mmHg 83%
    01:00 +4°C° 0.5 mm 16 mps 681 mmHg 83%
    02:00 +4°C° 0 mm 16 mps 682 mmHg 81%
    03:00 +4°C° 0 mm 16 mps 682 mmHg 80%
    04:00 +4°C° 0 mm 16 mps 683 mmHg 78%
    05:00 +2°C° 0 mm 15 mps 683 mmHg 78%
    06:00 +2°C° 0 mm 15 mps 684 mmHg 78%
    07:00 +3°C° 0 mm 14 mps 684 mmHg 77%
    08:00 +3°C° 0 mm 14 mps 685 mmHg 76%
    09:00 +4°C° 0 mm 14 mps 686 mmHg 74%
    10:00 +4°C° 0 mm 14 mps 686 mmHg 73%
    11:00 +5°C° 0 mm 13 mps 686 mmHg 71%
    12:00 +5°C° 0 mm 13 mps 687 mmHg 70%
    13:00 +5°C° 0 mm 13 mps 687 mmHg 68%
    14:00 +5°C° 0 mm 12 mps 687 mmHg 69%
    15:00 +6°C° 0 mm 11 mps 687 mmHg 69%
    16:00 +6°C° 0 mm 11 mps 687 mmHg 70%
    17:00 +6°C° 0 mm 10 mps 687 mmHg 74%
    18:00 +5°C° 0 mm 9 mps 688 mmHg 77%
    19:00 +5°C° 0 mm 8 mps 688 mmHg 81%
    20:00 +5°C° 0 mm 8 mps 688 mmHg 81%
    21:00 +5°C° 0 mm 8 mps 689 mmHg 81%
    22:00 +5°C° 0 mm 8 mps 689 mmHg 81%
    23:00 +5°C° 0 mm 7 mps 689 mmHg 83%

    16 Diciembre, Domingo

    Tiempo Temperatura Precipitaciones Viento Presión Humedad
    00:00 +4°C° 0 mm 6 mps 689 mmHg 85%
    01:00 +4°C° 0 mm 6 mps 689 mmHg 87%
    02:00 +5°C° 0 mm 5 mps 689 mmHg 88%
    03:00 +3°C° 0 mm 5 mps 689 mmHg 88%
    04:00 +4°C° 0 mm 4 mps 689 mmHg 88%
    05:00 +4°C° 0 mm 4 mps 689 mmHg 87%
    06:00 +4°C° 0 mm 3 mps 689 mmHg 87%
    07:00 +4°C° 0 mm 3 mps 689 mmHg 86%
    08:00 +7°C° 0 mm 3 mps 690 mmHg 81%
    09:00 +7°C° 0 mm 4 mps 690 mmHg 75%
    10:00 +8°C° 0 mm 4 mps 691 mmHg 70%
    11:00 +11°C° 0 mm 4 mps 691 mmHg 64%
    12:00 +12°C° 0 mm 4 mps 691 mmHg 59%
    13:00 +13°C° 0 mm 4 mps 691 mmHg 53%
    14:00 +14°C° 0 mm 4 mps 691 mmHg 51%
    15:00 +14°C° 0 mm 3 mps 691 mmHg 48%
    16:00 +14°C° 0 mm 3 mps 691 mmHg 46%
    17:00 +14°C° 0 mm 2 mps 691 mmHg 51%
    18:00 +12°C° 0 mm 2 mps 691 mmHg 57%
    19:00 +11°C° 0 mm 1 mps 691 mmHg 62%
    20:00 +11°C° 0 mm 1 mps 691 mmHg 63%
    21:00 +10°C° 0 mm 1 mps 691 mmHg 63%
    22:00 +10°C° 0 mm 1 mps 691 mmHg 64%
    23:00 +10°C° 0 mm 1 mps 691 mmHg 64%

    17 Diciembre, Lunes

    Tiempo Temperatura Precipitaciones Viento Presión Humedad
    00:00 +10°C° 0 mm 1 mps 691 mmHg 65%
    01:00 +10°C° 0 mm 1 mps 691 mmHg 65%
    02:00 +10°C° 0 mm 1 mps 690 mmHg 66%
    03:00 +10°C° 0 mm 1 mps 690 mmHg 68%
    04:00 +10°C° 0 mm 1 mps 690 mmHg 69%
    05:00 +10°C° 0 mm 1 mps 690 mmHg 69%
    06:00 +9°C° 0 mm 1 mps 690 mmHg 69%
    07:00 +8°C° 0 mm 2 mps 690 mmHg 69%
    08:00 +10°C° 0 mm 2 mps 690 mmHg 62%
    09:00 +13°C° 0 mm 2 mps 691 mmHg 54%
    10:00 +15°C° 0 mm 2 mps 692 mmHg 47%
    11:00 +17°C° 0 mm 3 mps 692 mmHg 43%
    12:00 +18°C° 0 mm 3 mps 692 mmHg 39%
    13:00 +19°C° 0 mm 4 mps 692 mmHg 36%
    14:00 +19°C° 0 mm 3 mps 691 mmHg 37%
    15:00 +19°C° 0 mm 3 mps 691 mmHg 38%
    16:00 +19°C° 0 mm 3 mps 691 mmHg 39%
    17:00 +17°C° 0 mm 3 mps 691 mmHg 43%
    18:00 +16°C° 0 mm 2 mps 691 mmHg 47%
    19:00 +14°C° 0 mm 2 mps 691 mmHg 52%
    20:00 +13°C° 0 mm 2 mps 691 mmHg 53%
    21:00 +13°C° 0 mm 2 mps 691 mmHg 54%
    22:00 +13°C° 0 mm 2 mps 691 mmHg 55%
    23:00 +12°C° 0 mm 2 mps 691 mmHg 57%
    Mostrar más